SCP
0 0 0 0 0 0 0 0 0 0 0 0 0 0 0 0 0 0 0 0 0 0 0 0 0 0 0 0 0 0 0 0 0 0 0 0 0 0 0 0 0 0 0
0 0 0 0 0 0 0 0 0 0 0 0 0 0 0 0 0 0 0 0 0 0 0 0 0 0 0 0 0 0 0 0 0 0 0 0 0 0 0 0 0 0 0
0 0 0 0 0 0 0 0 0 0 0 0 0 0 0 0 0 0 0 0 0 0 0 0 0 0 0 0 0 0 0 0 0 0 0 0 0 0 0 0 0 0 0
0 0 0 0 0 0 0 0 0 0 0 0 0 0 0 0 0 0 0 0 0 0 0 0 0 0 0 0 0 -0 -0 0 0 0 0 0 0 0 0 0 0 0 0
0 0 0 0 0 0 0 0 0 0 0 0 0 0 0 0 0 0 0 0 0 0 0 0 0 0 0 0 -0 -0 -0 0 0 0 0 0 0 0 0 0 0 0 0
0 0 0 0 0 0 0 0 0 0 0 0 0 0 0 0 0 0 0 0 0 0 0 0 0 0 0 -0 -0 -0 0 0 0 0 0 0 0 0 0 0 0 0 0
0 0 0 0 0 0 0 0 0 0 0 0 0 0 0 0 0 0 0 0 0 0 0 0 0 0 0 -0 -0 0 0 0 0 0 0 0 0 0 0 0 0 0 0
0 0 0 0 0 0 0 0 0 0 0 0 0 0 0 0 0 0 0 0 0 0 0 0 0 0 0 -0 -0 0 0 0 0 0 0 0 0 0 0 0 0 0 0
0 0 0 0 0 0 0 0 0 0 0 0 0 0 0 0 0 0 0 0 0 0 0 0 0 0 -0 -0 -0 0 0 0 0 0 0 0 0 0 0 0 0 0 0
0 0 0 0 0 0 0 0 0 0 0 0 0 0 0 0 0 0 0 0 0 0 0 0 0 0 -0 -0 0 0 0 0 0 0 0 0 0 0 0 0 0 0 0
1 0 0 0 0 0 0 0 0 0 0 0 0 0 0 0 0 0 0 0 0 0 0 0 0 0 0 0 0 0 0 0 0 0 0 0 0 0 0 0 0 0 0
1 1 0 0 0 0 0 0 0 0 0 0 0 0 0 0 0 0 0 0 0 0 0 0 0 0 0 0 0 0 0 0 0 0 0 0 0 0 0 0 0 0 0
1 1 1 0 0 0 0 0 0 0 0 0 0 0 0 0 0 0 0 0 0 0 0 0 0 0 0 0 0 0 0 0 0 0 0 0 0 0 0 0 0 0 0
1 1 1 1 1 1 0 0 0 0 0 0 0 0 0 0 0 0 0 0 0 0 0 0 0 0 0 0 0 0 0 0 0 0 0 0 0 0 0 0 0 0 0
1 1 1 1 1 1 1 0 0 0 0 0 0 0 0 0 0 0 0 0 0 0 0 0 0 0 0 0 0 0 0 0 0 0 0 0 0 0 0 0 0 0 0
1 1 1 1 1 1 1 1 0 0 0 0 0 0 0 0 0 0 0 0 0 0 0 0 0 0 0 0 0 0 0 0 0 0 0 0 0 0 0 0 0 0 0
1 1 2 2 1 1 1 1 1 1 1 1 1 1 0 0 0 0 0 0 0 0 0 0 0 0 0 0 0 0 0 0 0 0 0 0 0 0 0 0 0 0 0
2 2 2 2 1 1 1 1 1 1 1 1 1 1 1 1 1 1 0 0 0 0 0 0 0 0 0 0 0 0 0 0 0 0 0 0 0 0 0 0 0 0 0
2 2 2 2 2 1 1 1 1 1 1 1 1 1 1 1 1 1 1 0 0 0 0 0 0 0 0 0 0 0 0 0 0 0 0 0 0 0 0 0 0 0 0
2 2 2 2 2 1 1 1 1 1 1 1 1 1 1 1 1 1 1 1 1 1 0 0 0 0 0 0 0 0 0 0 0 0 0 0 0 0 0 0 0 0 0
2 2 2 2 2 2 1 1 1 1 1 1 1 1 1 1 1 1 1 1 1 1 1 0 0 0 0 0 0 0 0 0 0 0 0 0 0 0 0 0 0 0 0
2 2 2 2 2 2 1 1 1 1 1 1 1 1 1 1 1 1 1 1 1 1 1 1 1 0 0 0 0 0 0 0 0 0 0 0 0 0 0 0 0 0 0
2 2 2 2 2 2 1 1 1 1 1 1 1 1 2 1 1 1 1 1 1 1 1 1 1 1 0 0 0 0 0 0 0 0 0 0 0 0 0 0 0 0 0
2 2 2 2 2 1 1 1 1 1 1 1 1 2 2 1 1 1 1 1 1 1 1 1 1 1 0 0 0 0 0 0 0 0 0 0 0 0 0 0 0 0 0
2 2 2 2 2 2 1 1 1 1 1 1 1 2 2 1 1 1 1 1 1 1 1 1 1 1 1 0 0 0 0 0 0 0 0 0 0 0 0 0 0 0 0
2 2 2 2 2 2 1 1 1 1 1 1 1 2 2 1 1 1 1 1 1 1 1 1 1 1 1 0 0 0 0 0 0 0 0 0 0 0 0 0 0 0 0
Wind_Speed
18 17 16 15 15 15 15 15 14 14 14 13 14 13 13 14 14 14 14 14 14 14 13 13 14 14 14 15 15 15 16 16 16 17 17 16 15 14 13 14 16 13 16
21 18 16 15 15 15 15 15 14 14 13 13 13 13 13 13 13 13 13 13 13 13 13 13 14 14 14 14 14 14 14 14 15 16 16 15 14 13 12 14 16 11 15
21 18 16 15 15 15 15 14 14 13 13 13 13 12 12 12 12 12 13 13 13 13 13 13 14 14 14 14 13 12 13 13 13 14 13 10 11 14 15 17 17 15 15
20 17 16 17 16 15 14 14 14 13 13 13 12 12 12 12 12 12 13 13 13 13 14 14 14 14 14 13 11 10 10 10 10 9 6 9 10 14 15 15 15 15 14
19 17 17 17 16 15 14 14 13 13 13 12 12 11 12 12 12 12 13 13 13 13 14 14 14 13 13 11 9 8 7 6 6 6 9 10 9 12 14 14 14 14 13
19 18 17 17 16 16 15 14 13 13 12 12 12 11 11 11 12 12 12 12 13 13 13 13 13 12 11 10 7 5 3 2 2 7 9 10 9 12 13 13 14 14 13
20 18 17 17 16 16 15 14 13 12 12 12 11 11 11 11 12 12 12 12 13 13 13 12 12 12 10 8 5 3 1 1 2 8 9 10 9 12 13 13 13 13 12
20 19 16 17 16 15 15 14 13 13 12 12 11 11 11 11 11 12 12 12 12 12 12 12 11 10 9 6 3 1 2 3 5 11 11 10 11 12 13 13 12 12 12
20 18 15 15 14 15 14 14 13 13 12 12 11 11 11 11 12 12 11 11 11 11 11 11 10 9 8 5 2 1 3 4 2 8 12 8 11 12 12 12 12 12 12
19 18 15 15 14 13 12 13 13 13 12 12 11 11 11 11 11 12 11 10 11 10 10 10 9 8 7 4 2 2 4 5 2 9 8 9 12 12 12 11 11 11 11
16 16 16 16 14 13 13 13 13 12 12 11 10 11 11 8 9 9 11 11 10 10 9 9 8 8 7 5 4 4 4 1 6 8 7 12 12 12 12 11 10 10 10
15 15 14 14 13 13 12 11 9 9 9 8 7 9 6 4 5 9 12 11 10 9 9 8 7 7 6 4 5 4 2 3 5 7 8 13 12 12 11 11 10 9 9
13 13 15 13 11 10 8 9 6 5 7 7 7 7 5 5 6 7 6 7 6 8 6 6 6 5 5 3 3 3 2 3 4 6 8 12 11 11 11 10 10 9 9
11 11 13 14 9 7 8 7 6 6 6 5 7 7 5 3 4 5 4 5 5 3 3 4 3 4 4 4 3 3 1 4 5 6 7 12 11 11 10 10 9 9 9
10 10 11 12 8 6 5 4 6 6 7 6 6 5 5 4 3 4 3 3 4 3 4 3 2 3 3 2 2 2 2 5 7 7 6 12 11 10 10 10 9 9 9
11 10 10 11 9 6 4 2 2 4 5 6 5 5 5 4 4 4 4 2 3 3 3 3 3 3 2 1 1 2 2 3 5 7 7 8 11 10 10 10 10 9 9
11 9 9 10 10 7 6 5 4 4 6 5 5 6 4 4 5 4 3 3 3 3 3 2 2 2 3 3 2 2 2 2 4 6 7 6 7 9 10 10 10 10 9
11 9 9 10 11 8 6 5 4 4 5 5 6 6 5 4 5 4 4 4 3 3 3 2 2 2 2 2 2 2 2 2 4 4 6 6 6 7 9 11 11 10 10
11 10 9 8 10 9 7 5 4 2 3 4 5 6 6 5 5 4 2 3 3 3 3 3 3 2 2 2 2 3 3 3 3 5 5 6 6 7 7 10 12 12 12
10 10 9 8 9 8 6 4 3 3 3 3 4 5 7 5 6 4 3 4 3 2 2 1 3 2 1 2 3 3 3 4 4 4 4 5 6 8 9 9 8 9 13
11 11 10 10 9 7 6 6 5 4 4 3 4 6 7 6 6 4 3 4 3 2 3 3 2 3 2 2 1 1 2 4 5 4 4 4 5 6 6 8 8 6 7
12 12 11 10 10 9 6 5 4 4 4 4 4 6 7 6 6 6 4 3 4 2 3 2 2 1 3 3 2 1 1 1 2 5 4 4 4 4 5 8 7 7 6
12 12 11 10 10 9 8 5 4 3 3 4 5 4 6 6 6 5 7 5 4 4 4 4 3 3 2 2 2 2 1 2 2 2 5 5 4 4 4 5 7 7 8
11 11 10 10 9 8 7 8 8 6 6 5 5 5 6 6 6 6 6 6 4 4 4 5 5 3 3 2 2 2 2 2 1 1 2 3 6 5 5 5 6 7 7
10 10 9 9 8 8 8 7 7 7 5 4 4 6 6 5 6 6 6 5 5 4 4 4 3 4 3 3 3 2 2 2 3 2 2 2 3 4 5 5 3 4 5
8 9 9 9 9 9 9 8 7 7 6 6 6 6 5 4 4 6 6 5 5 4 5 4 4 5 4 3 3 2 2 2 3 3 3 3 3 4 4 4 4 4 4
Wind_Direction
120 122 124 123 124 123 120 116 114 111 108 104 101 97 94 92 93 94 95 96 99 99 98 96 95 93 91 89 89 91 93 95 96 98 97 94 93 94 99 105 101 95 99
121 123 124 123 125 125 123 120 117 115 112 109 105 102 99 98 99 99 98 98 100 100 101 99 97 97 96 95 95 97 100 103 105 105 102 94 90 90 91 92 94 101 102
120 124 125 123 125 125 125 122 121 119 116 112 109 106 103 102 103 103 102 100 101 102 102 102 101 101 100 100 101 103 107 112 118 121 114 102 92 88 91 94 99 102 101
125 131 125 124 125 125 125 125 123 121 118 115 112 109 107 105 104 104 103 102 102 103 103 103 102 103 104 104 106 110 116 122 131 139 117 102 95 93 95 98 102 104 103
123 120 124 127 126 126 126 125 124 121 119 117 114 111 109 107 105 104 103 104 103 103 104 104 104 105 107 109 112 118 124 133 144 124 92 89 89 99 100 102 103 104 104
124 124 128 129 128 128 128 127 125 124 121 119 117 114 112 110 108 106 105 105 105 105 105 107 107 108 110 114 119 122 115 120 146 108 102 100 98 102 104 105 104 103 103
128 126 131 131 131 131 130 129 127 126 124 122 119 118 115 114 111 110 109 107 107 107 107 109 111 113 113 116 119 123 122 313 148 102 98 97 103 106 105 105 104 103 103
129 129 131 134 134 134 133 132 130 130 129 127 124 122 120 118 116 112 112 112 112 112 112 113 115 117 118 118 117 71 333 328 105 106 101 102 112 111 110 109 108 107 107
129 131 140 140 138 137 136 136 136 135 133 131 130 129 127 126 123 119 116 117 116 117 117 118 120 121 123 128 143 283 316 333 80 113 111 111 118 118 116 115 113 112 112
133 139 145 146 145 147 144 143 142 141 140 139 140 139 136 135 134 131 127 123 121 121 123 125 128 130 136 151 192 262 307 317 113 102 106 119 125 124 122 121 120 120 120
138 143 151 149 154 157 152 148 148 148 148 149 152 152 153 158 150 150 129 131 131 131 133 137 141 145 153 177 218 253 287 274 89 98 105 125 131 130 129 128 126 125 123
144 150 151 150 158 161 152 148 160 161 158 172 163 168 183 168 144 134 133 141 144 146 149 156 157 166 184 184 201 230 247 143 117 110 120 132 133 135 134 135 135 132 130
151 153 150 147 159 159 140 158 164 161 158 179 167 174 172 154 142 134 147 149 157 166 175 163 179 200 203 196 173 197 224 111 108 111 130 137 138 139 140 142 143 142 141
159 156 150 145 158 150 148 161 160 157 163 166 166 180 166 169 156 151 159 159 167 179 179 174 196 190 192 174 177 187 161 101 111 118 140 145 146 148 149 151 152 152 150
164 160 145 143 146 141 136 163 167 157 162 158 161 178 164 162 151 136 136 153 165 164 175 189 194 165 162 147 157 138 93 109 122 128 140 154 154 157 159 161 162 163 164
168 164 144 145 141 140 143 183 167 156 147 149 160 163 171 156 140 137 145 163 164 163 171 175 171 153 144 120 120 124 135 113 120 137 145 158 162 166 169 172 173 174 175
166 160 145 147 145 154 165 191 182 169 157 154 149 150 169 164 147 152 154 174 175 153 145 160 156 146 161 168 166 183 153 142 140 139 150 159 168 178 181 182 182 184 186
164 160 157 164 157 164 175 196 197 188 155 148 148 153 173 169 158 167 163 177 165 154 156 156 172 170 165 167 173 186 156 155 156 160 165 168 169 176 188 193 191 193 196
161 157 162 164 160 169 179 192 213 178 152 156 153 157 169 177 170 181 169 148 164 164 161 190 164 172 169 178 183 180 176 179 172 193 180 180 176 170 175 191 196 198 202
156 156 166 172 164 168 175 187 208 182 172 171 159 155 159 176 181 182 166 162 185 171 169 158 125 165 167 192 221 187 190 183 185 191 195 189 181 182 182 179 189 203 208
162 164 174 178 171 169 177 186 188 188 181 178 171 159 163 178 177 183 182 165 188 175 171 168 164 183 203 195 191 223 215 200 192 186 202 197 196 196 179 171 185 191 199
168 172 177 180 177 180 182 184 183 184 187 182 179 165 172 176 177 185 187 181 176 172 181 187 172 192 211 192 182 192 217 238 230 206 195 199 201 195 186 188 190 186 189
173 177 179 179 180 184 180 182 189 180 193 188 178 173 180 180 187 193 176 197 181 185 178 190 194 202 224 219 192 173 177 217 236 228 209 198 192 198 203 197 194 190 197
175 177 173 176 177 181 184 189 190 191 195 194 181 178 184 188 188 189 187 191 192 191 168 194 191 204 209 235 231 222 218 164 193 240 237 207 194 201 211 214 207 193 198
170 169 171 170 174 181 191 195 197 203 201 192 184 178 180 188 196 198 195 188 192 197 177 191 171 197 204 228 231 221 234 216 218 206 230 225 212 207 202 211 212 199 194
167 169 169 168 176 186 195 198 203 206 204 194 188 178 182 186 195 204 199 190 196 199 185 184 185 197 208 227 239 235 220 216 227 225 219 216 216 216 200 200 200 198 199